Regional Weather Roundup
Issued by NWS Newport/Morehead, NC

Current Version | Previous Version | Text Only | Print | Product List | Glossary Off
Versions: 1 2 3 4 5 6 7 8 9 10 11 12 13 14 15 16 17 18 19 20 21 22 23 24 25 26 27 28 29 30 31 32 33 34 35 36 37 38 39 40 41 42 43 44 45 46 47 48 49 50
000 ASUS42 KMHX 290313 RWRMHX WEATHER ROUNDUP FOR EASTERN NORTH CAROLINA NATIONAL WEATHER SERVICE NEWPORT/MOREHEAD CITY NC 1100 PM EDT THU MAY 28 2015 NOTE: "FAIR" INDICATES FEW OR NO CLOUDS BELOW 12,000 FEET WITH NO SIGNIFICANT WEATHER AND/OR OBSTRUCTIONS TO VISIBILITY NCZ015>017-031-032-045>047-102-103-290400- NORTH COAST CITY SKY/WX TMP DP RH WIND PRES REMARKS EDENTON CLEAR 72 64 76 S8 30.24R ELIZABETH CITY CLEAR 71 62 73 S7 30.24R KITTY HAWK PTCLDY 71 62 73 S3 30.23F MANTEO PTCLDY 71 63 75 S6 30.25R $$ NCZ045>047-081-094-103-104-290400- CENTRAL COAST CITY SKY/WX TMP DP RH WIND PRES REMARKS FRISCO PTCLDY 73 61 65 SE5 30.25R SWANQUARTER N/A 70 N/A N/A SE2 30.21S $$ NCZ095-097-098-100-101-290400- SOUTHERN COAST CITY SKY/WX TMP DP RH WIND PRES REMARKS BEAUFORT CLEAR 68 62 81 CALM 30.24S CEDAR ISLAND N/A 70 N/A N/A S1 30.30R JACKSONVILLE CLEAR 66 62 87 SE3 30.23S PINEY ISLAND CLEAR N/A N/A N/A S3 30.24S WILMINGTON CLEAR 67 63 87 NE3 30.23S $$ NCZ011>013-027>030-043-044-078>080-089-090>093-098-290400- COASTAL PLAIN CITY SKY/WX TMP DP RH WIND PRES REMARKS AHOSKIE PTCLDY 70 64 80 S6 30.23S CLINTON CLEAR 72 65 80 CALM 30.24R ELIZABETHTOWN CLEAR 71 64 77 CALM 30.23R GOLDSBORO CLEAR 73 65 75 CALM 30.21R GREENVILLE PTCLDY 73 64 73 S9 30.24S HAVELOCK CLEAR 66 61 84 SE3 30.26R KENANSVILLE CLEAR 70 62 75 CALM 30.24S KINSTON CLEAR 72 63 72 S6 30.24R NEW BERN CLEAR 66 60 81 CALM 30.26R RICHLANDS CLEAR 64 59 82 S3 30.24S ROCKY MOUNT CLEAR 74 67 78 S5 30.22R WASHINGTON CLEAR 72 62 71 S6 30.24S WHITEVILLE CLEAR 67 63 86 CALM 30.23R $$ AMZ130-135-150-152-154-156-158-170-250-252-270-ANZ085-086-088-633-658-670-290400- MARINE OBSERVATIONS STATION/POSITION TIME TEMP WIND PRES WAVE SWELL AIR SEA DIR/SP/G HT/PER HT/PER (UTC) (F) (DEG/KT/KT) (MB) (FT/S) (FT/S) CHESAPEAKE LIGHT 0200 68 170/ 22/ 23 1023.6 64 E VA BEACH 0250 67 65 140/ 4/ 6 1023.9 4/ 9 3/ 9 DUCK 0200 67 57 150/ 11/ 12 1022.9 2 E DUCK 0211 62 N/A 2/ 8 OREGON INLET 0200 72 78 140/ 3/ 4 1024.2 13E OREGON INLT 0300 74 N/A 3/ 8 2/11 HATTERAS CG 0200 75 77 140/ 5/ 7 1023.6 DIAMOND BUOY 0250 75 77 130/ 10/ 12 1024.0 4/ 8 3/ 8 CAPE LOOKOUT 0300 74 130/ 4/ 5 1024.0 BEAUFORT LAB 0200 73 76 140/ 4/ 4 1023.1 27 SE WRIGHTSVLE 0200 76 150/ 6/ 8 N/A 5 SE WRIGHTSVLE 0208 76 78 150/ 6/ 10 1023.6 225 S CAPE HAT 0250 74 74 70/ 14/ 16 1022.5 6/ 8 5/ 8 41 SE CHARLESTON 0250 77 78 100/ 10/ 12 1022.6 3/ 8 3/ 8 $$

USA.gov is the U.S. government's official web portal to all federal, state and local government web resources and services.